FREGAT DEB, 40078

Orbit data source: Space-Track

FREGAT DEB, 40078 is space debris in SSO originally from a launch on Tue, 08 Jul 2014 UTC launched from the Tyuratam Missile And Space Complex (TTMTR). Debris objects in space refer to the collection of defunct objects orbiting the Earth. Examples of debris include non-operational satellites, rocket bodies, and fragments generated from explosions, collisions, or faulty payload assembly.

Loading next visibility...
Identifier
40078, 2014-037K
Orbit
SSO
Country
Flag of CISCIS
Related business
Manufacturer
Lavochkin
Mission
Spacecraft
Bus & Motor
Unknown
Mass
Unknown
Launch date (UTC)
2014-07-08 (11 years ago)
Launch vehicle
Unknown
Launch site
Tyuratam Missile And Space Complex (TTMTR)
Object type
Payload
Rocket body
Debris
Shape & HBR
Irr + 1 Truss, 1.5 m
Radar Cross Section
7.500 m², Large (>1 m²)

Expand to show TLE details & history
Last TLE update: 9 hours ago

TLE from 9 hours ago
0 FREGAT DEB
1 40078U 14037K   25343.45964845  .00001547  00000-0  32870-3 0  9996
2 40078  98.0473 322.9098 0129776 296.7904  62.0067 14.55380627605524
Epoch: 2025-12-09T11:01Z
TLE epoch observation values (Epoch: 2025-12-09T11:01:53.626Z)
Latitude
-0.00005°
Longitude
78.99235°
Altitude
668.879 km
Speed
7.545 km/s
True Right ascension
21h 31m 38s
True Declination
0° 00' 00"
Sunlit
Object was in daylight at epoch
Visualization orbit readout
Latitude
Unknown
Longitude
Unknown
Altitude
Unknown
Speed
Unknown
Apparent Right ascension
Unknown
Apparent Declination
Unknown
Sunlit
N/A
Visualization observer readout
Local Sidereal Time
18:37:50
Azimuth
Unknown
Elevation
Unknown
Doppler factor
Unknown
Orbital elements
Apogee altitude
797.133 km
Perigee altitude
613.284 km
Semi-major axis
7,083.346 km
Eccentricity
0.01298
Inclination
98.0473°
RAAN
322.9098°
Arg. of periapsis
296.7904°
True anomaly
63.32979°
Mean anomaly
62.0067°
Eccentric anomaly
62.66725°
Mean motion
3.64071 °/min
Orbital period
98.88 mins
BSTAR
0.0003287
Loading maneuver chart data...
Computing Atmospheric mass density...
Loading historical data...
Loading historical data...
Loading historical data...
Loading historical data...
Loading historical data...
Loading historical data...
Loading historical data...

Documentation

Showing up to 5 results
|